Time,TemperatureF,DewpointF,PressureIn,WindDirection,WindDirectionDegrees,WindSpeedMPH,WindSpeedGustMPH,Humidity,HourlyPrecipIn,Conditions,Clouds,dailyrainin,SoftwareType,DateUTC
2013-11-27 00:04:00,20.9,10.6,30.33,NNW,342,5.0,10.0,64,0.00,,,0.00,Wunderground v.1.15,2013-11-27 06:04:00,
2013-11-27 00:10:00,20.8,10.5,30.34,NNW,335,5.0,7.0,64,0.00,,,0.00,Wunderground v.1.15,2013-11-27 06:10:00,
2013-11-27 00:16:00,20.7,10.4,30.33,North,351,4.0,7.0,64,0.00,,,0.00,Wunderground v.1.15,2013-11-27 06:16:00,
2013-11-27 00:22:00,20.6,10.3,30.33,NNW,342,5.0,12.0,64,0.00,,,0.00,Wunderground v.1.15,2013-11-27 06:22:00,
2013-11-27 00:28:00,20.4,10.1,30.33,NNW,332,5.0,12.0,64,0.00,,,0.00,Wunderground v.1.15,2013-11-27 06:28:00,
2013-11-27 00:34:00,20.3,10.1,30.33,NW,317,5.0,7.0,64,0.00,,,0.00,Wunderground v.1.15,2013-11-27 06:34:00,
2013-11-27 00:40:00,20.2,10.0,30.33,NW,324,5.0,9.0,64,0.00,,,0.00,Wunderground v.1.15,2013-11-27 06:40:00,
2013-11-27 00:46:00,20.2,10.0,30.33,NW,325,4.0,9.0,64,0.00,,,0.00,Wunderground v.1.15,2013-11-27 06:46:00,
2013-11-27 00:52:00,20.0,9.8,30.33,NNW,331,4.0,9.0,64,0.00,,,0.00,Wunderground v.1.15,2013-11-27 06:52:00,
2013-11-27 00:58:00,19.9,9.7,30.33,NNW,333,4.0,9.0,64,0.00,,,0.00,Wunderground v.1.15,2013-11-27 06:58:00,
2013-11-27 01:04:00,19.9,9.7,30.33,NW,311,4.0,7.0,64,0.00,,,0.00,Wunderground v.1.15,2013-11-27 07:04:00,
2013-11-27 01:10:00,19.8,9.6,30.33,NNW,332,5.0,5.0,64,0.00,,,0.00,Wunderground v.1.15,2013-11-27 07:10:00,
2013-11-27 01:16:00,19.7,9.5,30.33,NNW,334,4.0,5.0,64,0.00,,,0.00,Wunderground v.1.15,2013-11-27 07:16:00,
2013-11-27 01:22:00,19.6,9.4,30.33,NNW,342,3.0,4.0,64,0.00,,,0.00,Wunderground v.1.15,2013-11-27 07:22:00,
2013-11-27 01:28:00,19.4,9.2,30.33,NW,323,4.0,9.0,64,0.00,,,0.00,Wunderground v.1.15,2013-11-27 07:28:00,
2013-11-27 01:34:00,19.4,9.2,30.34,NW,317,5.0,7.0,64,0.00,,,0.00,Wunderground v.1.15,2013-11-27 07:34:00,
2013-11-27 01:40:00,19.4,9.2,30.34,NW,319,4.0,4.0,64,0.00,,,0.00,Wunderground v.1.15,2013-11-27 07:40:00,
2013-11-27 01:46:00,19.3,9.4,30.34,NNW,330,3.0,10.0,65,0.00,,,0.00,Wunderground v.1.15,2013-11-27 07:46:00,
2013-11-27 01:52:00,19.2,9.4,30.34,NNW,338,4.0,4.0,65,0.00,,,0.00,Wunderground v.1.15,2013-11-27 07:52:00,
2013-11-27 01:58:00,19.1,9.3,30.34,NNW,330,3.0,10.0,65,0.00,,,0.00,Wunderground v.1.15,2013-11-27 07:58:00,
2013-11-27 02:04:00,19.0,9.2,30.34,NNW,336,3.0,10.0,65,0.00,,,0.00,Wunderground v.1.15,2013-11-27 08:04:00,
2013-11-27 02:10:00,18.9,9.1,30.34,NNW,334,3.0,3.0,65,0.00,,,0.00,Wunderground v.1.15,2013-11-27 08:10:00,
2013-11-27 02:16:00,18.9,9.1,30.34,NNW,331,3.0,10.0,65,0.00,,,0.00,Wunderground v.1.15,2013-11-27 08:16:00,
2013-11-27 02:22:00,18.8,9.0,30.34,NNW,336,3.0,10.0,65,0.00,,,0.00,Wunderground v.1.15,2013-11-27 08:22:00,
2013-11-27 02:28:00,18.6,8.8,30.34,NNW,333,3.0,10.0,65,0.00,,,0.00,Wunderground v.1.15,2013-11-27 08:28:00,
2013-11-27 02:34:00,18.5,8.7,30.34,NW,326,3.0,10.0,65,0.00,,,0.00,Wunderground v.1.15,2013-11-27 08:34:00,
2013-11-27 02:40:00,18.4,8.6,30.34,NW,321,3.0,10.0,65,0.00,,,0.00,Wunderground v.1.15,2013-11-27 08:40:00,
2013-11-27 02:46:00,18.4,8.6,30.34,NW,321,3.0,10.0,65,0.00,,,0.00,Wunderground v.1.15,2013-11-27 08:46:00,
2013-11-27 02:52:00,18.2,8.4,30.34,NW,319,3.0,5.0,65,0.00,,,0.00,Wunderground v.1.15,2013-11-27 08:52:00,
2013-11-27 02:58:00,18.1,8.3,30.35,NW,321,3.0,10.0,65,0.00,,,0.00,Wunderground v.1.15,2013-11-27 08:58:00,
2013-11-27 03:04:00,18.0,8.2,30.35,NW,319,2.0,10.0,65,0.00,,,0.00,Wunderground v.1.15,2013-11-27 09:04:00,
2013-11-27 03:10:00,17.9,8.1,30.35,NW,320,3.0,3.0,65,0.00,,,0.00,Wunderground v.1.15,2013-11-27 09:10:00,
2013-11-27 03:16:00,17.8,8.0,30.35,NW,320,2.0,10.0,65,0.00,,,0.00,Wunderground v.1.15,2013-11-27 09:16:00,
2013-11-27 03:22:00,17.7,7.9,30.35,NW,318,2.0,10.0,65,0.00,,,0.00,Wunderground v.1.15,2013-11-27 09:22:00,
2013-11-27 03:28:00,17.7,7.9,30.35,NW,317,3.0,10.0,65,0.00,,,0.00,Wunderground v.1.15,2013-11-27 09:28:00,
2013-11-27 03:34:00,17.6,8.2,30.35,NW,317,3.0,10.0,66,0.00,,,0.00,Wunderground v.1.15,2013-11-27 09:34:00,
2013-11-27 03:40:00,17.5,8.1,30.34,NW,322,3.0,3.0,66,0.00,,,0.00,Wunderground v.1.15,2013-11-27 09:40:00,
2013-11-27 03:46:00,17.4,8.0,30.34,NW,323,2.0,10.0,66,0.00,,,0.00,Wunderground v.1.15,2013-11-27 09:46:00,
2013-11-27 03:52:00,17.3,7.9,30.34,NW,322,2.0,10.0,66,0.00,,,0.00,Wunderground v.1.15,2013-11-27 09:52:00,
2013-11-27 03:58:00,17.2,7.8,30.35,NW,324,2.0,10.0,66,0.00,,,0.00,Wunderground v.1.15,2013-11-27 09:58:00,
2013-11-27 04:04:00,17.2,7.8,30.35,NW,321,2.0,3.0,66,0.00,,,0.00,Wunderground v.1.15,2013-11-27 10:04:00,
2013-11-27 04:10:00,17.1,7.7,30.35,NW,322,3.0,3.0,66,0.00,,,0.00,Wunderground v.1.15,2013-11-27 10:10:00,
2013-11-27 04:16:00,17.1,7.7,30.35,NNW,327,3.0,4.0,66,0.00,,,0.00,Wunderground v.1.15,2013-11-27 10:16:00,
2013-11-27 04:22:00,17.0,7.6,30.35,NNW,336,3.0,5.0,66,0.00,,,0.00,Wunderground v.1.15,2013-11-27 10:22:00,
2013-11-27 04:28:00,17.0,7.6,30.35,NNW,336,3.0,5.0,66,0.00,,,0.00,Wunderground v.1.15,2013-11-27 10:28:00,
2013-11-27 04:34:00,17.0,7.6,30.35,NNW,329,3.0,5.0,66,0.00,,,0.00,Wunderground v.1.15,2013-11-27 10:34:00,
2013-11-27 04:40:00,16.9,7.5,30.35,NNW,327,3.0,3.0,66,0.00,,,0.00,Wunderground v.1.15,2013-11-27 10:40:00,
2013-11-27 04:46:00,16.8,7.4,30.35,NNW,329,3.0,5.0,66,0.00,,,0.00,Wunderground v.1.15,2013-11-27 10:46:00,
2013-11-27 04:52:00,16.8,7.7,30.35,NNW,331,3.0,3.0,67,0.00,,,0.00,Wunderground v.1.15,2013-11-27 10:52:00,
2013-11-27 04:58:00,16.7,7.6,30.36,NNW,331,2.0,7.0,67,0.00,,,0.00,Wunderground v.1.15,2013-11-27 10:58:00,
2013-11-27 05:04:00,16.6,7.5,30.36,NNW,331,3.0,7.0,67,0.00,,,0.00,Wunderground v.1.15,2013-11-27 11:04:00,
2013-11-27 05:10:00,16.6,7.5,30.36,NNW,329,4.0,4.0,67,0.00,,,0.00,Wunderground v.1.15,2013-11-27 11:10:00,
2013-11-27 05:16:00,16.6,7.5,30.36,NNW,327,3.0,7.0,67,0.00,,,0.00,Wunderground v.1.15,2013-11-27 11:16:00,
2013-11-27 05:22:00,16.6,7.5,30.36,NNW,328,3.0,4.0,67,0.00,,,0.00,Wunderground v.1.15,2013-11-27 11:22:00,
2013-11-27 05:28:00,16.5,7.4,30.36,NNW,328,3.0,7.0,67,0.00,,,0.00,Wunderground v.1.15,2013-11-27 11:28:00,
2013-11-27 05:34:00,16.4,7.3,30.36,NNW,329,2.0,7.0,67,0.00,,,0.00,Wunderground v.1.15,2013-11-27 11:34:00,
2013-11-27 05:40:00,16.4,7.3,30.36,NNW,327,2.0,7.0,67,0.00,,,0.00,Wunderground v.1.15,2013-11-27 11:40:00,
2013-11-27 05:46:00,16.3,7.3,30.36,NNW,329,2.0,7.0,67,0.00,,,0.00,Wunderground v.1.15,2013-11-27 11:46:00,
2013-11-27 05:54:00,16.2,7.2,30.36,NNW,327,3.0,7.0,67,0.00,,,0.00,Wunderground v.1.15,2013-11-27 11:54:00,
2013-11-27 06:00:00,16.1,7.1,30.36,NNW,327,2.0,4.0,67,0.00,,,0.00,Wunderground v.1.15,2013-11-27 12:00:00,
2013-11-27 06:06:00,16.0,7.0,30.36,NNW,327,2.0,4.0,67,0.00,,,0.00,Wunderground v.1.15,2013-11-27 12:06:00,
2013-11-27 06:12:00,15.9,6.9,30.37,NNW,327,2.0,3.0,67,0.00,,,0.00,Wunderground v.1.15,2013-11-27 12:12:00,
2013-11-27 06:18:00,15.8,6.8,30.37,NNW,327,2.0,3.0,67,0.00,,,0.00,Wunderground v.1.15,2013-11-27 12:18:00,
2013-11-27 06:24:00,15.8,6.8,30.37,NW,326,2.0,3.0,67,0.00,,,0.00,Wunderground v.1.15,2013-11-27 12:24:00,
2013-11-27 06:30:00,15.8,7.1,30.37,NW,322,3.0,3.0,68,0.00,,,0.00,Wunderground v.1.15,2013-11-27 12:30:00,
2013-11-27 06:36:00,15.8,7.1,30.37,NW,322,2.0,5.0,68,0.00,,,0.00,Wunderground v.1.15,2013-11-27 12:36:00,
2013-11-27 06:42:00,15.7,7.0,30.38,NW,323,2.0,4.0,68,0.00,,,0.00,Wunderground v.1.15,2013-11-27 12:42:00,
2013-11-27 06:48:00,15.6,6.9,30.38,NW,323,2.0,4.0,68,0.00,,,0.00,Wunderground v.1.15,2013-11-27 12:48:00,
2013-11-27 06:54:00,15.5,6.8,30.38,NW,323,2.0,3.0,68,0.00,,,0.00,Wunderground v.1.15,2013-11-27 12:54:00,
2013-11-27 07:00:00,15.5,6.8,30.38,NW,324,2.0,6.0,68,0.00,,,0.00,Wunderground v.1.15,2013-11-27 13:00:00,
2013-11-27 07:06:00,15.5,6.8,30.39,NW,325,2.0,6.0,68,0.00,,,0.00,Wunderground v.1.15,2013-11-27 13:06:00,
2013-11-27 07:12:00,15.4,6.7,30.39,NW,323,2.0,6.0,68,0.00,,,0.00,Wunderground v.1.15,2013-11-27 13:12:00,
2013-11-27 07:18:00,15.3,6.6,30.39,NW,323,2.0,6.0,68,0.00,,,0.00,Wunderground v.1.15,2013-11-27 13:18:00,
2013-11-27 07:24:00,15.2,6.5,30.40,NW,323,3.0,6.0,68,0.00,,,0.00,Wunderground v.1.15,2013-11-27 13:24:00,
2013-11-27 07:30:00,15.2,6.5,30.40,NW,323,3.0,3.0,68,0.00,,,0.00,Wunderground v.1.15,2013-11-27 13:30:00,
2013-11-27 07:36:00,15.2,6.5,30.41,NW,323,2.0,6.0,68,0.00,,,0.00,Wunderground v.1.15,2013-11-27 13:36:00,
2013-11-27 07:42:00,15.2,6.5,30.41,NW,321,3.0,6.0,68,0.00,,,0.00,Wunderground v.1.15,2013-11-27 13:42:00,
2013-11-27 07:48:00,15.3,6.9,30.41,NW,321,3.0,6.0,69,0.00,,,0.00,Wunderground v.1.15,2013-11-27 13:48:00,
2013-11-27 07:54:00,15.4,7.0,30.41,NW,321,3.0,6.0,69,0.00,,,0.00,Wunderground v.1.15,2013-11-27 13:54:00,
2013-11-27 08:02:00,15.7,7.3,30.41,NW,322,3.0,4.0,69,0.00,,,0.00,Wunderground v.1.15,2013-11-27 14:02:00,
2013-11-27 08:08:00,15.9,7.5,30.41,NW,317,3.0,6.0,69,0.00,,,0.00,Wunderground v.1.15,2013-11-27 14:08:00,
2013-11-27 08:14:00,16.1,7.7,30.42,NNW,329,4.0,4.0,69,0.00,,,0.00,Wunderground v.1.15,2013-11-27 14:14:00,
2013-11-27 08:20:00,16.4,8.0,30.42,NW,325,5.0,5.0,69,0.00,,,0.00,Wunderground v.1.15,2013-11-27 14:20:00,
2013-11-27 08:26:00,16.6,8.2,30.42,NW,324,5.0,11.0,69,0.00,,,0.00,Wunderground v.1.15,2013-11-27 14:26:00,
2013-11-27 08:32:00,16.9,8.5,30.42,NNW,327,5.0,5.0,69,0.00,,,0.00,Wunderground v.1.15,2013-11-27 14:32:00,
2013-11-27 08:38:00,17.1,8.7,30.42,NNW,344,5.0,10.0,69,0.00,,,0.00,Wunderground v.1.15,2013-11-27 14:38:00,
2013-11-27 08:44:00,17.3,8.9,30.42,NNW,334,5.0,5.0,69,0.00,,,0.00,Wunderground v.1.15,2013-11-27 14:44:00,
2013-11-27 08:50:00,17.6,9.2,30.42,NNW,327,5.0,5.0,69,0.00,,,0.00,Wunderground v.1.15,2013-11-27 14:50:00,
2013-11-27 08:56:00,17.8,9.3,30.42,North,351,5.0,9.0,69,0.00,,,0.00,Wunderground v.1.15,2013-11-27 14:56:00,
2013-11-27 09:02:00,18.0,9.5,30.42,NNW,346,5.0,6.0,69,0.00,,,0.00,Wunderground v.1.15,2013-11-27 15:02:00,
2013-11-27 09:08:00,18.2,9.7,30.42,WNW,303,5.0,9.0,69,0.00,,,0.00,Wunderground v.1.15,2013-11-27 15:08:00,
2013-11-27 09:14:00,18.5,10.0,30.42,NNW,328,5.0,6.0,69,0.00,,,0.00,Wunderground v.1.15,2013-11-27 15:14:00,
2013-11-27 09:20:00,18.7,10.2,30.42,NNE,14,5.0,8.0,69,0.00,,,0.00,Wunderground v.1.15,2013-11-27 15:20:00,
2013-11-27 09:26:00,18.9,10.4,30.42,NNE,14,5.0,8.0,69,0.00,,,0.00,Wunderground v.1.15,2013-11-27 15:26:00,
2013-11-27 09:32:00,19.0,10.5,30.43,NNW,346,4.0,6.0,69,0.00,,,0.00,Wunderground v.1.15,2013-11-27 15:32:00,
2013-11-27 09:38:00,19.2,10.7,30.43,NNW,342,5.0,7.0,69,0.00,,,0.00,Wunderground v.1.15,2013-11-27 15:38:00,
2013-11-27 09:44:00,19.4,10.9,30.43,NNW,344,6.0,7.0,69,0.00,,,0.00,Wunderground v.1.15,2013-11-27 15:44:00,
2013-11-27 09:50:00,19.7,10.8,30.43,NNW,347,5.0,7.0,68,0.00,,,0.00,Wunderground v.1.15,2013-11-27 15:50:00,
2013-11-27 09:56:00,19.9,11.0,30.42,NNW,344,5.0,7.0,68,0.00,,,0.00,Wunderground v.1.15,2013-11-27 15:56:00,
2013-11-27 10:02:00,20.1,11.2,30.42,NNE,22,5.0,7.0,68,0.00,,,0.00,Wunderground v.1.15,2013-11-27 16:02:00,
2013-11-27 10:08:00,20.4,11.5,30.42,NW,326,4.0,7.0,68,0.00,,,0.00,Wunderground v.1.15,2013-11-27 16:08:00,
2013-11-27 10:14:00,20.7,11.8,30.41,NNW,344,3.0,4.0,68,0.00,,,0.00,Wunderground v.1.15,2013-11-27 16:14:00,
2013-11-27 10:20:00,21.0,12.1,30.41,NW,317,4.0,5.0,68,0.00,,,0.00,Wunderground v.1.15,2013-11-27 16:20:00,
2013-11-27 10:26:00,21.1,12.2,30.41,NW,318,4.0,5.0,68,0.00,,,0.00,Wunderground v.1.15,2013-11-27 16:26:00,
2013-11-27 10:32:00,21.4,12.5,30.41,North,360,4.0,7.0,68,0.00,,,0.00,Wunderground v.1.15,2013-11-27 16:32:00,
2013-11-27 10:38:00,21.6,12.7,30.41,NNW,331,5.0,7.0,68,0.00,,,0.00,Wunderground v.1.15,2013-11-27 16:38:00,
2013-11-27 10:44:00,21.8,12.9,30.41,NNW,334,5.0,6.0,68,0.00,,,0.00,Wunderground v.1.15,2013-11-27 16:44:00,
2013-11-27 10:50:00,21.9,12.6,30.41,NNW,335,5.0,5.0,67,0.00,,,0.00,Wunderground v.1.15,2013-11-27 16:50:00,
2013-11-27 10:56:00,22.0,12.7,30.41,NNW,340,4.0,12.0,67,0.00,,,0.00,Wunderground v.1.15,2013-11-27 16:56:00,
2013-11-27 11:02:00,22.3,13.0,30.41,NW,325,4.0,12.0,67,0.00,,,0.00,Wunderground v.1.15,2013-11-27 17:02:00,
2013-11-27 11:08:00,22.4,13.1,30.40,NW,309,4.0,12.0,67,0.00,,,0.00,Wunderground v.1.15,2013-11-27 17:08:00,
2013-11-27 11:14:00,22.5,13.2,30.40,WNW,298,2.0,12.0,67,0.00,,,0.00,Wunderground v.1.15,2013-11-27 17:14:00,
2013-11-27 11:20:00,22.8,13.5,30.40,NW,321,4.0,4.0,67,0.00,,,0.00,Wunderground v.1.15,2013-11-27 17:20:00,
2013-11-27 11:26:00,23.0,13.7,30.39,NNW,329,4.0,12.0,67,0.00,,,0.00,Wunderground v.1.15,2013-11-27 17:26:00,
2013-11-27 11:32:00,23.3,13.6,30.39,NNW,327,5.0,12.0,66,0.00,,,0.00,Wunderground v.1.15,2013-11-27 17:32:00,
2013-11-27 11:38:00,23.5,14.1,30.39,NW,323,4.0,12.0,67,0.00,,,0.00,Wunderground v.1.15,2013-11-27 17:38:00,
2013-11-27 11:44:00,23.7,14.0,30.39,NW,318,4.0,12.0,66,0.00,,,0.00,Wunderground v.1.15,2013-11-27 17:44:00,
2013-11-27 11:50:00,23.8,13.7,30.39,NW,313,5.0,12.0,65,0.00,,,0.00,Wunderground v.1.15,2013-11-27 17:50:00,
2013-11-27 11:56:00,23.9,14.2,30.39,NW,306,5.0,12.0,66,0.00,,,0.00,Wunderground v.1.15,2013-11-27 17:56:00,
2013-11-27 12:02:00,24.1,14.0,30.39,NNW,344,4.0,5.0,65,0.00,,,0.00,Wunderground v.1.15,2013-11-27 18:02:00,
2013-11-27 12:08:00,24.4,14.3,30.39,NNW,343,5.0,13.0,65,0.00,,,0.00,Wunderground v.1.15,2013-11-27 18:08:00,
2013-11-27 12:14:00,24.6,14.5,30.39,North,351,7.0,11.0,65,0.00,,,0.00,Wunderground v.1.15,2013-11-27 18:14:00,
2013-11-27 12:20:00,24.8,14.7,30.39,NW,312,6.0,6.0,65,0.00,,,0.00,Wunderground v.1.15,2013-11-27 18:20:00,
2013-11-27 12:26:00,25.0,14.9,30.38,WNW,297,6.0,9.0,65,0.00,,,0.00,Wunderground v.1.15,2013-11-27 18:26:00,
2013-11-27 12:32:00,25.1,14.6,30.37,NW,306,6.0,8.0,64,0.00,,,0.00,Wunderground v.1.15,2013-11-27 18:32:00,
2013-11-27 12:38:00,25.3,14.8,30.37,NW,313,4.0,8.0,64,0.00,,,0.00,Wunderground v.1.15,2013-11-27 18:38:00,
2013-11-27 12:44:00,25.7,15.2,30.37,West,281,3.0,4.0,64,0.00,,,0.00,Wunderground v.1.15,2013-11-27 18:44:00,
2013-11-27 12:50:00,26.0,15.5,30.37,WNW,296,4.0,4.0,64,0.00,,,0.00,Wunderground v.1.15,2013-11-27 18:50:00,
2013-11-27 12:56:00,26.2,15.7,30.36,NW,322,4.0,11.0,64,0.00,,,0.00,Wunderground v.1.15,2013-11-27 18:56:00,
2013-11-27 13:02:00,26.3,15.8,30.35,NW,319,5.0,11.0,64,0.00,,,0.00,Wunderground v.1.15,2013-11-27 19:02:00,
2013-11-27 13:08:00,26.4,15.5,30.36,NNW,331,5.0,11.0,63,0.00,,,0.00,Wunderground v.1.15,2013-11-27 19:08:00,
2013-11-27 13:14:00,26.6,15.7,30.35,NW,309,4.0,11.0,63,0.00,,,0.00,Wunderground v.1.15,2013-11-27 19:14:00,
2013-11-27 13:20:00,26.6,15.7,30.35,NW,310,5.0,5.0,63,0.00,,,0.00,Wunderground v.1.15,2013-11-27 19:20:00,
2013-11-27 13:26:00,26.7,15.8,30.35,NW,311,3.0,11.0,63,0.00,,,0.00,Wunderground v.1.15,2013-11-27 19:26:00,
2013-11-27 13:32:00,26.9,15.6,30.34,WNW,302,2.0,11.0,62,0.00,,,0.00,Wunderground v.1.15,2013-11-27 19:32:00,
2013-11-27 13:38:00,27.0,15.7,30.34,WNW,303,3.0,11.0,62,0.00,,,0.00,Wunderground v.1.15,2013-11-27 19:38:00,
2013-11-27 13:44:00,27.2,15.9,30.34,NW,315,3.0,11.0,62,0.00,,,0.00,Wunderground v.1.15,2013-11-27 19:44:00,
2013-11-27 13:50:00,27.2,15.9,30.34,NW,318,3.0,11.0,62,0.00,,,0.00,Wunderground v.1.15,2013-11-27 19:50:00,
2013-11-27 13:56:00,27.2,15.5,30.34,WNW,286,3.0,11.0,61,0.00,,,0.00,Wunderground v.1.15,2013-11-27 19:56:00,
2013-11-27 14:02:00,27.2,15.9,30.33,West,281,3.0,11.0,62,0.00,,,0.00,Wunderground v.1.15,2013-11-27 20:02:00,
2013-11-27 14:08:00,27.4,16.1,30.33,West,281,2.0,11.0,62,0.00,,,0.00,Wunderground v.1.15,2013-11-27 20:08:00,
2013-11-27 14:14:00,27.6,16.3,30.33,NW,306,2.0,11.0,62,0.00,,,0.00,Wunderground v.1.15,2013-11-27 20:14:00,
2013-11-27 14:20:00,27.7,16.4,30.33,NW,309,2.0,11.0,62,0.00,,,0.00,Wunderground v.1.15,2013-11-27 20:20:00,
2013-11-27 14:26:00,27.8,16.1,30.34,NW,308,3.0,11.0,61,0.00,,,0.00,Wunderground v.1.15,2013-11-27 20:26:00,
2013-11-27 14:32:00,27.8,16.1,30.33,NNW,333,3.0,11.0,61,0.00,,,0.00,Wunderground v.1.15,2013-11-27 20:32:00,
2013-11-27 14:38:00,27.8,16.1,30.34,NNW,329,3.0,11.0,61,0.00,,,0.00,Wunderground v.1.15,2013-11-27 20:38:00,
2013-11-27 14:44:00,27.9,16.2,30.33,West,271,2.0,11.0,61,0.00,,,0.00,Wunderground v.1.15,2013-11-27 20:44:00,
2013-11-27 14:50:00,28.1,16.4,30.33,West,263,2.0,11.0,61,0.00,,,0.00,Wunderground v.1.15,2013-11-27 20:50:00,
2013-11-27 14:56:00,28.1,16.4,30.33,WNW,289,3.0,11.0,61,0.00,,,0.00,Wunderground v.1.15,2013-11-27 20:56:00,
2013-11-27 15:02:00,28.1,16.4,30.33,WNW,290,3.0,3.0,61,0.00,,,0.00,Wunderground v.1.15,2013-11-27 21:02:00,
2013-11-27 15:08:00,28.3,16.2,30.33,WNW,290,2.0,3.0,60,0.00,,,0.00,Wunderground v.1.15,2013-11-27 21:08:00,
2013-11-27 15:14:00,28.4,16.3,30.34,WNW,292,2.0,4.0,60,0.00,,,0.00,Wunderground v.1.15,2013-11-27 21:14:00,
2013-11-27 15:20:00,28.4,16.3,30.34,WNW,294,3.0,3.0,60,0.00,,,0.00,Wunderground v.1.15,2013-11-27 21:20:00,
2013-11-27 15:26:00,28.5,16.4,30.34,NW,307,3.0,4.0,60,0.00,,,0.00,Wunderground v.1.15,2013-11-27 21:26:00,
2013-11-27 15:32:00,28.5,16.0,30.33,WNW,291,3.0,3.0,59,0.00,,,0.00,Wunderground v.1.15,2013-11-27 21:32:00,
2013-11-27 15:38:00,28.4,15.9,30.33,WNW,288,2.0,3.0,59,0.00,,,0.00,Wunderground v.1.15,2013-11-27 21:38:00,
2013-11-27 15:44:00,28.6,16.1,30.33,WNW,288,1.0,2.0,59,0.00,,,0.00,Wunderground v.1.15,2013-11-27 21:44:00,
2013-11-27 15:50:00,28.6,16.1,30.33,WNW,288,1.0,1.0,59,0.00,,,0.00,Wunderground v.1.15,2013-11-27 21:50:00,
2013-11-27 15:56:00,28.5,16.0,30.33,WNW,288,1.0,7.0,59,0.00,,,0.00,Wunderground v.1.15,2013-11-27 21:56:00,
2013-11-27 16:02:00,28.5,16.0,30.32,WNW,288,0.0,7.0,59,0.00,,,0.00,Wunderground v.1.15,2013-11-27 22:02:00,
2013-11-27 16:08:00,28.4,15.9,30.33,WNW,288,0.0,7.0,59,0.00,,,0.00,Wunderground v.1.15,2013-11-27 22:08:00,
2013-11-27 16:14:00,28.4,15.9,30.33,WNW,288,0.0,7.0,59,0.00,,,0.00,Wunderground v.1.15,2013-11-27 22:14:00,
2013-11-27 16:20:00,28.3,15.8,30.32,WNW,288,0.0,7.0,59,0.00,,,0.00,Wunderground v.1.15,2013-11-27 22:20:00,
2013-11-27 16:26:00,28.1,15.6,30.31,WNW,288,1.0,7.0,59,0.00,,,0.00,Wunderground v.1.15,2013-11-27 22:26:00,
2013-11-27 16:32:00,27.8,15.3,30.32,West,281,1.0,7.0,59,0.00,,,0.00,Wunderground v.1.15,2013-11-27 22:32:00,
2013-11-27 16:38:00,27.5,15.0,30.31,West,281,1.0,7.0,59,0.00,,,0.00,Wunderground v.1.15,2013-11-27 22:38:00,
2013-11-27 16:44:00,27.2,14.8,30.31,West,281,0.0,7.0,59,0.00,,,0.00,Wunderground v.1.15,2013-11-27 22:44:00,
2013-11-27 16:50:00,26.9,14.5,30.32,West,281,0.0,7.0,59,0.00,,,0.00,Wunderground v.1.15,2013-11-27 22:50:00,
2013-11-27 16:56:00,26.6,14.2,30.32,West,281,0.0,7.0,59,0.00,,,0.00,Wunderground v.1.15,2013-11-27 22:56:00,
2013-11-27 17:02:00,26.5,14.1,30.32,West,281,0.0,7.0,59,0.00,,,0.00,Wunderground v.1.15,2013-11-27 23:02:00,
2013-11-27 17:08:00,26.3,13.9,30.32,West,281,0.0,7.0,59,0.00,,,0.00,Wunderground v.1.15,2013-11-27 23:08:00,
2013-11-27 17:14:00,26.0,13.6,30.32,West,281,0.0,7.0,59,0.00,,,0.00,Wunderground v.1.15,2013-11-27 23:14:00,
2013-11-27 17:20:00,25.7,13.3,30.32,West,281,0.0,7.0,59,0.00,,,0.00,Wunderground v.1.15,2013-11-27 23:20:00,
2013-11-27 17:26:00,25.5,13.1,30.32,West,281,0.0,7.0,59,0.00,,,0.00,Wunderground v.1.15,2013-11-27 23:26:00,
2013-11-27 17:32:00,25.3,13.0,30.32,West,281,0.0,7.0,59,0.00,,,0.00,Wunderground v.1.15,2013-11-27 23:32:00,
2013-11-27 17:38:00,25.1,12.8,30.32,West,281,0.0,7.0,59,0.00,,,0.00,Wunderground v.1.15,2013-11-27 23:38:00,
2013-11-27 17:44:00,24.8,12.5,30.32,West,281,0.0,7.0,59,0.00,,,0.00,Wunderground v.1.15,2013-11-27 23:44:00,
2013-11-27 17:50:00,24.6,12.3,30.32,West,281,0.0,7.0,59,0.00,,,0.00,Wunderground v.1.15,2013-11-27 23:50:00,
2013-11-27 17:56:00,24.3,12.0,30.32,West,281,0.0,7.0,59,0.00,,,0.00,Wunderground v.1.15,2013-11-27 23:56:00,
2013-11-27 18:02:00,24.0,11.7,30.31,West,281,0.0,0.0,59,0.00,,,0.00,Wunderground v.1.15,2013-11-28 00:02:00,
2013-11-27 18:08:00,23.6,11.4,30.32,West,281,0.0,0.0,59,0.00,,,0.00,Wunderground v.1.15,2013-11-28 00:08:00,
2013-11-27 18:14:00,23.3,11.1,30.31,West,281,0.0,0.0,59,0.00,,,0.00,Wunderground v.1.15,2013-11-28 00:14:00,
2013-11-27 18:20:00,22.9,11.1,30.31,West,281,0.0,0.0,60,0.00,,,0.00,Wunderground v.1.15,2013-11-28 00:20:00,
2013-11-27 18:26:00,22.6,10.4,30.31,West,281,0.0,0.0,59,0.00,,,0.00,Wunderground v.1.15,2013-11-28 00:26:00,
2013-11-27 18:32:00,22.3,10.5,30.31,West,281,0.0,0.0,60,0.00,,,0.00,Wunderground v.1.15,2013-11-28 00:32:00,
2013-11-27 18:38:00,22.1,10.3,30.31,West,281,0.0,0.0,60,0.00,,,0.00,Wunderground v.1.15,2013-11-28 00:38:00,
2013-11-27 18:44:00,21.8,10.0,30.30,West,281,0.0,0.0,60,0.00,,,0.00,Wunderground v.1.15,2013-11-28 00:44:00,
2013-11-27 18:50:00,21.6,9.8,30.30,West,281,0.0,0.0,60,0.00,,,0.00,Wunderground v.1.15,2013-11-28 00:50:00,
2013-11-27 18:56:00,21.5,9.7,30.30,West,281,0.0,0.0,60,0.00,,,0.00,Wunderground v.1.15,2013-11-28 00:56:00,
2013-11-27 19:02:00,21.3,9.6,30.29,West,281,0.0,0.0,60,0.00,,,0.00,Wunderground v.1.15,2013-11-28 01:02:00,
2013-11-27 19:08:00,21.1,9.4,30.29,West,281,0.0,0.0,60,0.00,,,0.00,Wunderground v.1.15,2013-11-28 01:08:00,
2013-11-27 19:14:00,21.0,9.3,30.29,West,281,0.0,0.0,60,0.00,,,0.00,Wunderground v.1.15,2013-11-28 01:14:00,
2013-11-27 19:20:00,20.8,9.1,30.29,West,281,0.0,0.0,60,0.00,,,0.00,Wunderground v.1.15,2013-11-28 01:20:00,
2013-11-27 19:26:00,20.6,8.9,30.29,West,281,0.0,0.0,60,0.00,,,0.00,Wunderground v.1.15,2013-11-28 01:26:00,
2013-11-27 19:32:00,20.4,8.7,30.29,West,281,0.0,0.0,60,0.00,,,0.00,Wunderground v.1.15,2013-11-28 01:32:00,
2013-11-27 19:38:00,20.2,8.5,30.29,West,281,0.0,0.0,60,0.00,,,0.00,Wunderground v.1.15,2013-11-28 01:38:00,
2013-11-27 19:44:00,20.0,8.3,30.29,West,281,0.0,0.0,60,0.00,,,0.00,Wunderground v.1.15,2013-11-28 01:44:00,
2013-11-27 19:50:00,19.9,8.6,30.29,West,281,0.0,0.0,61,0.00,,,0.00,Wunderground v.1.15,2013-11-28 01:50:00,
2013-11-27 19:56:00,19.7,8.4,30.29,West,281,0.0,0.0,61,0.00,,,0.00,Wunderground v.1.15,2013-11-28 01:56:00,
2013-11-27 20:02:00,19.5,8.2,30.29,West,281,0.0,0.0,61,0.00,,,0.00,Wunderground v.1.15,2013-11-28 02:02:00,
2013-11-27 20:08:00,19.4,8.1,30.28,West,281,0.0,2.0,61,0.00,,,0.00,Wunderground v.1.15,2013-11-28 02:08:00,
2013-11-27 20:14:00,19.3,8.0,30.28,West,281,0.0,0.0,61,0.00,,,0.00,Wunderground v.1.15,2013-11-28 02:14:00,
2013-11-27 20:20:00,19.3,8.0,30.28,West,281,0.0,1.0,61,0.00,,,0.00,Wunderground v.1.15,2013-11-28 02:20:00,
2013-11-27 20:26:00,19.4,8.5,30.28,West,281,0.0,2.0,62,0.00,,,0.00,Wunderground v.1.15,2013-11-28 02:26:00,
2013-11-27 20:32:00,19.8,8.9,30.28,West,271,1.0,2.0,62,0.00,,,0.00,Wunderground v.1.15,2013-11-28 02:32:00,
2013-11-27 20:38:00,20.4,9.8,30.28,West,259,2.0,4.0,63,0.00,,,0.00,Wunderground v.1.15,2013-11-28 02:38:00,
2013-11-27 20:44:00,20.7,9.7,30.27,WSW,256,2.0,2.0,62,0.00,,,0.00,Wunderground v.1.15,2013-11-28 02:44:00,
2013-11-27 20:50:00,21.0,10.4,30.28,WSW,252,2.0,2.0,63,0.00,,,0.00,Wunderground v.1.15,2013-11-28 02:50:00,
2013-11-27 20:56:00,21.3,10.7,30.28,WSW,252,1.0,2.0,63,0.00,,,0.00,Wunderground v.1.15,2013-11-28 02:56:00,
2013-11-27 21:02:00,21.5,10.8,30.28,WSW,250,1.0,2.0,63,0.00,,,0.00,Wunderground v.1.15,2013-11-28 03:02:00,
2013-11-27 21:08:00,21.7,11.0,30.28,WSW,239,2.0,4.0,63,0.00,,,0.00,Wunderground v.1.15,2013-11-28 03:08:00,
2013-11-27 21:14:00,21.8,11.1,30.27,SW,223,3.0,3.0,63,0.00,,,0.00,Wunderground v.1.15,2013-11-28 03:14:00,
2013-11-27 21:20:00,21.9,11.2,30.28,SW,221,2.0,2.0,63,0.00,,,0.00,Wunderground v.1.15,2013-11-28 03:20:00,
2013-11-27 21:26:00,21.8,11.1,30.27,SW,221,1.0,2.0,63,0.00,,,0.00,Wunderground v.1.15,2013-11-28 03:26:00,
2013-11-27 21:32:00,21.8,11.1,30.27,SW,221,1.0,1.0,63,0.00,,,0.00,Wunderground v.1.15,2013-11-28 03:32:00,
2013-11-27 21:38:00,21.8,11.1,30.27,SW,220,1.0,3.0,63,0.00,,,0.00,Wunderground v.1.15,2013-11-28 03:38:00,
2013-11-27 21:44:00,21.8,11.1,30.27,SW,219,2.0,2.0,63,0.00,,,0.00,Wunderground v.1.15,2013-11-28 03:44:00,
2013-11-27 21:50:00,21.8,11.1,30.27,SW,218,2.0,2.0,63,0.00,,,0.00,Wunderground v.1.15,2013-11-28 03:50:00,
2013-11-27 21:56:00,21.8,11.1,30.27,SSW,209,3.0,3.0,63,0.00,,,0.00,Wunderground v.1.15,2013-11-28 03:56:00,
2013-11-27 22:02:00,22.0,11.7,30.26,SSW,208,3.0,4.0,64,0.00,,,0.00,Wunderground v.1.15,2013-11-28 04:02:00,
2013-11-27 22:08:00,22.1,11.8,30.27,SSW,206,2.0,4.0,64,0.00,,,0.00,Wunderground v.1.15,2013-11-28 04:08:00,
2013-11-27 22:14:00,22.2,11.5,30.27,SSW,206,2.0,3.0,63,0.00,,,0.00,Wunderground v.1.15,2013-11-28 04:14:00,
2013-11-27 22:20:00,22.3,11.6,30.27,SSW,206,1.0,1.0,63,0.00,,,0.00,Wunderground v.1.15,2013-11-28 04:20:00,
2013-11-27 22:26:00,22.2,11.5,30.26,SSW,205,1.0,4.0,63,0.00,,,0.00,Wunderground v.1.15,2013-11-28 04:26:00,
2013-11-27 22:32:00,22.2,11.9,30.26,SSW,203,2.0,3.0,64,0.00,,,0.00,Wunderground v.1.15,2013-11-28 04:32:00,
2013-11-27 22:38:00,22.3,12.0,30.26,SSW,203,2.0,3.0,64,0.00,,,0.00,Wunderground v.1.15,2013-11-28 04:38:00,
2013-11-27 22:44:00,22.3,12.0,30.26,SSW,197,3.0,6.0,64,0.00,,,0.00,Wunderground v.1.15,2013-11-28 04:44:00,
2013-11-27 22:50:00,22.5,12.1,30.25,SSE,167,4.0,6.0,64,0.00,,,0.00,Wunderground v.1.15,2013-11-28 04:50:00,
2013-11-27 22:56:00,22.7,12.3,30.24,SSE,165,6.0,11.0,64,0.00,,,0.00,Wunderground v.1.15,2013-11-28 04:56:00,
2013-11-27 23:02:00,22.9,12.5,30.25,SSE,166,5.0,6.0,64,0.00,,,0.00,Wunderground v.1.15,2013-11-28 05:02:00,
2013-11-27 23:04:00,23.0,12.6,30.24,SSE,165,4.0,6.0,64,0.00,,,0.00,Wunderground v.1.15,2013-11-28 05:04:00,
2013-11-27 23:08:00,23.1,13.1,30.24,SSE,162,4.0,6.0,65,0.00,,,0.00,Wunderground v.1.15,2013-11-28 05:08:00,
2013-11-27 23:12:00,23.3,12.9,30.24,SSE,161,4.0,6.0,64,0.00,,,0.00,Wunderground v.1.15,2013-11-28 05:12:00,
2013-11-27 23:14:00,23.4,13.0,30.25,SSE,161,5.0,6.0,64,0.00,,,0.00,Wunderground v.1.15,2013-11-28 05:14:00,
2013-11-27 23:16:00,23.4,13.4,30.25,SSE,163,4.0,6.0,65,0.00,,,0.00,Wunderground v.1.15,2013-11-28 05:16:00,
2013-11-27 23:22:00,23.6,13.5,30.25,SSE,165,3.0,4.0,65,0.00,,,0.00,Wunderground v.1.15,2013-11-28 05:22:00,
2013-11-27 23:28:00,23.6,13.5,30.25,SSE,165,2.0,4.0,65,0.00,,,0.00,Wunderground v.1.15,2013-11-28 05:28:00,
2013-11-27 23:34:00,23.7,13.6,30.25,South,171,2.0,3.0,65,0.00,,,0.00,Wunderground v.1.15,2013-11-28 05:34:00,
2013-11-27 23:40:00,23.9,13.8,30.25,South,171,2.0,2.0,65,0.00,,,0.00,Wunderground v.1.15,2013-11-28 05:40:00,
2013-11-27 23:46:00,24.0,13.9,30.25,South,172,2.0,4.0,65,0.00,,,0.00,Wunderground v.1.15,2013-11-28 05:46:00,
2013-11-27 23:52:00,24.2,14.1,30.24,South,172,2.0,3.0,65,0.00,,,0.00,Wunderground v.1.15,2013-11-28 05:52:00,
2013-11-27 23:58:00,24.4,14.3,30.24,South,171,2.0,4.0,65,0.00,,,0.00,Wunderground v.1.15,2013-11-28 05:58:00,